TIANMU-1 03

Last updated on Sat Aug 15 2026 00:02:40 GMT+0000 (Coordinated Universal Time)

1 55973U 23039A 26226.61294792 .00009654 00000+0 18158-3 0 9993 2 55973 97.5256 42.9489 0001737 217.5166 142.5963 15.48784737189874
UTC large
Height (km)
Speed (km/s)
/
Latitude / Longitude
Inclination (degrees)
Orbital Period (minutes)
Azimuth
Elevation
Range (km)
Doppler Factor

Next 0 passes for location: London (51.5072 / 0.1276)

No passes found over London.
TIANMU-1 03